Other Public Products
Issued by NWS Charleston, SC

Current Version | Previous Version | Text Only | Print | Product List | Glossary On
Versions: 1 2 3 4 5 6 7 8 9 10 11 12 13 14 15 16 17 18 19 20 21 22 23 24 25 26 27 28 29 30 31 32 33 34 35 36 37 38 39 40 41 42 43 44 45 46 47 48 49 50
689
FPUS82 KCHS 210612
OPUCHS

TEST...KCHS/KSAV Gateway Observations...TEST
National Weather Service Charleston SC
200 AM EDT SAT APR 21 2018

NOTE: "fair" indicates few or no clouds below 12,000 feet with no
significant weather and/or obstructions to visibility.

SCZ050-WAZ558-NCZ071-TXZ119-213-PAZ071-DCZ001-FLZ074-172-MI076-
NYZ176-178-MAZ016-IL014-TNZ027-NJZ106-GAZ044-MD014-210700-

...Gateway Observations for Charleston International...

CITY           SKY/WX    TMP DP  RH WIND       PRES   REMARKS
Chas Airport   FAIR      50  44  80 NE7       30.31F
6HR MIN TEMP:  47; 6HR MAX TEMP:  59;

Seattle        CLOUDY    52  34  50 SW9       30.17S
6HR MIN TEMP:  52; 6HR MAX TEMP:  59;

Charlotte      FAIR      47  38  71 CALM      30.34F
6HR MIN TEMP:  42; 6HR MAX TEMP:  63;

Dallas DFW     PTCLDY    58  45  62 SE13      30.06F
6HR MIN TEMP:  58; 6HR MAX TEMP:  67;

Dallas Love    PTCLDY    59  46  62 SE14      30.09S
6HR MIN TEMP:  59; 6HR MAX TEMP:  68;

Philladelphia  FAIR      39  24  55 N5        30.42S WCI  36
6HR MIN TEMP:  39; 6HR MAX TEMP:  49;

Wash National  FAIR      47  29  49 NE10      30.44R
6HR MIN TEMP:  47; 6HR MAX TEMP:  57;

Baltimore      FAIR      42  26  53 NE6       30.43R
6HR MIN TEMP:  42; 6HR MAX TEMP:  54;

Miami          FAIR      75  68  78 E7        30.09F
6HR MIN TEMP:  75; 6HR MAX TEMP:  79;

Detroit        FAIR      40  28  62 CALM      30.47R
6HR MIN TEMP:  39; 6HR MAX TEMP:  51;

Newark         FAIR      40  24  53 N6        30.38S WCI  36
6HR MIN TEMP:  40; 6HR MAX TEMP:  45;

Laguardia      FAIR      42  25  50 NW10      30.37S
6HR MIN TEMP:  42; 6HR MAX TEMP:  45;

J F K          FAIR      39  25  57 NW9       30.38F WCI  33
6HR MIN TEMP:  39; 6HR MAX TEMP:  44;

Boston Logan   FAIR      40  26  57 W12       30.25S WCI  33
6HR MIN TEMP:  40; 6HR MAX TEMP:  47;

Ft. Lauderdale FAIR      77  69  76 SE12      30.08F
6HR MIN TEMP:  77; 6HR MAX TEMP:  78;

Chicago O`Hare MOCLDY    43  19  38 E3        30.44S
6HR MIN TEMP:  43; 6HR MAX TEMP:  53;

Chicago Midway CLOUDY    43  19  38 E6        30.45F
6HR MIN TEMP:  43; 6HR MAX TEMP:  53;

Houston Bush   MOCLDY    59  53  80 E12       30.08F
6HR MIN TEMP:  58; 6HR MAX TEMP:  64;

Houston Hobby  FAIR      62  60  93 E7        30.07F
6HR MIN TEMP:  62; 6HR MAX TEMP:  63;

Nashville      FAIR      49  30  48 NE7       30.33S
6HR MIN TEMP:  49; 6HR MAX TEMP:  63;

Atlanta        FAIR      52  36  54 E5        30.28S
6HR MIN TEMP:  52; 6HR MAX TEMP:  65;


$$

GAZ044-118-TXZ119-213-NCZ071-DCZ001-MDZ014-506-PAZ021-071-NJZ106-
NYZ176-178-MAZ106-OHZ011-021-055-MIZ076-KYZ091-ILZ014-INZ047-
MNZ060-ONZ431-210700-

...Gateway Observations for Savannah International...

CITY           SKY/WX    TMP DP  RH WIND       PRES   REMARKS
Savannah Arpt  FAIR      54  48  80 E8        30.29F
6HR MIN TEMP:  54; 6HR MAX TEMP:  62;

Atlanta        FAIR      52  36  54 E5        30.28S
6HR MIN TEMP:  52; 6HR MAX TEMP:  65;

Charlotte      FAIR      47  38  71 CALM      30.34F
6HR MIN TEMP:  42; 6HR MAX TEMP:  63;

Dallas DFW     PTCLDY    58  45  62 SE13      30.06F
6HR MIN TEMP:  58; 6HR MAX TEMP:  67;

Houston Bush   MOCLDY    59  53  80 E12       30.08F
6HR MIN TEMP:  58; 6HR MAX TEMP:  64;

Wash National  FAIR      47  29  49 NE10      30.44R
6HR MIN TEMP:  47; 6HR MAX TEMP:  57;

Wash Dulles    FAIR      44  28  53 NE8       30.42R
6HR MIN TEMP:  38; 6HR MAX TEMP:  55;

Baltimore      FAIR      42  26  53 NE6       30.43R
6HR MIN TEMP:  42; 6HR MAX TEMP:  54;

Philadelphia   FAIR      39  24  55 N5        30.42S WCI  36
6HR MIN TEMP:  39; 6HR MAX TEMP:  49;

Newark         FAIR      40  24  53 N6        30.38S WCI  36
6HR MIN TEMP:  40; 6HR MAX TEMP:  45;

Laguardia      FAIR      42  25  50 NW10      30.37S
6HR MIN TEMP:  42; 6HR MAX TEMP:  45;

J F K          FAIR      39  25  57 NW9       30.38F WCI  33
6HR MIN TEMP:  39; 6HR MAX TEMP:  44;

Boston         FAIR      40  26  57 W12       30.25S WCI  33
6HR MIN TEMP:  40; 6HR MAX TEMP:  47;

Pittsburg      FAIR      35  23  61 N3        30.44R
6HR MIN TEMP:  34; 6HR MAX TEMP:  48;

Akron          FAIR      36  20  52 CALM      30.44S
6HR MIN TEMP:  33; 6HR MAX TEMP:  45;

Cleveland      FAIR      31  24  75 S6        30.47F WCI  25
6HR MIN TEMP:  30; 6HR MAX TEMP:  47;

Cincinnati     FAIR      47  27  45 E8        30.40S
6HR MIN TEMP:  46; 6HR MAX TEMP:  56;

Columbus       FAIR      38  24  56 NE6       30.44S WCI  33
Detroit        FAIR      40  28  62 CALM      30.47R
6HR MIN TEMP:  39; 6HR MAX TEMP:  51;

Chicago O`Hare MOCLDY    43  19  38 E3        30.44S
6HR MIN TEMP:  43; 6HR MAX TEMP:  53;

Minneapolis    FAIR      41  27  57 CALM      30.42F
6HR MIN TEMP:  41; 6HR MAX TEMP:  50;

Indianapolis   FAIR      45  24  43 E6        30.42R
6HR MIN TEMP:  45; 6HR MAX TEMP:  57;

Toronto Canada PTCLDY    30  19  64 W5        30.45R WCI  25

$$




USA.gov is the U.S. government's official web portal to all federal, state and local government web resources and services.